Time,TemperatureF,DewpointF,PressureIn,WindDirection,WindDirectionDegrees,WindSpeedMPH,WindSpeedGustMPH,Humidity,HourlyPrecipIn,Conditions,Clouds,dailyrainin,SoftwareType,DateUTC
2013-02-15 00:01:00,58.3,30.7,30.22,NE,56,8.0,22.0,35,0.00,,,0.00,meteohub,2013-02-15 08:01:00,
2013-02-15 00:06:00,58.1,30.6,30.22,NNE,28,9.0,22.0,35,0.00,,,0.00,meteohub,2013-02-15 08:06:00,
2013-02-15 00:11:00,57.9,30.4,30.22,NNE,19,11.0,22.0,35,0.00,,,0.00,meteohub,2013-02-15 08:11:00,
2013-02-15 00:16:00,57.7,30.2,30.22,ENE,57,14.0,22.0,35,0.00,,,0.00,meteohub,2013-02-15 08:16:00,
2013-02-15 00:21:00,57.7,30.2,30.22,NNE,24,16.0,22.0,35,0.00,,,0.00,meteohub,2013-02-15 08:21:00,
2013-02-15 00:26:00,57.6,30.0,30.22,NE,52,15.0,23.0,35,0.00,,,0.00,meteohub,2013-02-15 08:26:00,
2013-02-15 00:31:00,57.6,30.0,30.22,ENE,58,19.0,23.0,35,0.00,,,0.00,meteohub,2013-02-15 08:31:00,
2013-02-15 00:36:00,57.7,30.2,30.22,NE,46,13.0,23.0,35,0.00,,,0.00,meteohub,2013-02-15 08:36:00,
2013-02-15 00:41:00,57.6,30.0,30.22,NE,50,14.0,22.0,35,0.00,,,0.00,meteohub,2013-02-15 08:41:00,
2013-02-15 00:46:00,57.7,30.2,30.22,NNE,24,11.0,23.0,35,0.00,,,0.00,meteohub,2013-02-15 08:46:00,
2013-02-15 00:51:00,57.7,30.2,30.22,ENE,64,11.0,23.0,35,0.00,,,0.00,meteohub,2013-02-15 08:51:00,
2013-02-15 00:56:00,57.7,29.5,30.22,NE,37,14.0,23.0,34,0.00,,,0.00,meteohub,2013-02-15 08:56:00,
2013-02-15 01:01:00,57.7,29.5,30.22,NE,40,12.0,21.0,34,0.00,,,0.00,meteohub,2013-02-15 09:01:00,
2013-02-15 01:06:00,57.6,30.0,30.22,ENE,61,13.0,21.0,35,0.00,,,0.00,meteohub,2013-02-15 09:06:00,
2013-02-15 01:11:00,57.6,29.5,30.22,NE,40,12.0,19.0,34,0.00,,,0.00,meteohub,2013-02-15 09:11:00,
2013-02-15 01:16:00,57.4,30.0,30.22,ENE,62,16.0,21.0,35,0.00,,,0.00,meteohub,2013-02-15 09:16:00,
2013-02-15 01:21:00,57.4,30.0,30.22,NE,34,12.0,21.0,35,0.00,,,0.00,meteohub,2013-02-15 09:21:00,
2013-02-15 01:26:00,57.4,29.3,30.22,NE,47,11.0,21.0,34,0.00,,,0.00,meteohub,2013-02-15 09:26:00,
2013-02-15 01:31:00,57.6,29.5,30.22,NE,46,9.0,21.0,34,0.00,,,0.00,meteohub,2013-02-15 09:31:00,
2013-02-15 01:36:00,57.6,29.5,30.22,NNE,30,13.0,21.0,34,0.00,,,0.00,meteohub,2013-02-15 09:36:00,
2013-02-15 01:41:00,57.2,29.1,30.22,NNE,12,10.0,21.0,34,0.00,,,0.00,meteohub,2013-02-15 09:41:00,
2013-02-15 01:46:00,57.0,29.7,30.22,NE,41,17.0,19.0,35,0.00,,,0.00,meteohub,2013-02-15 09:46:00,
2013-02-15 01:51:00,57.0,29.7,30.23,NE,34,13.0,19.0,35,0.00,,,0.00,meteohub,2013-02-15 09:51:00,
2013-02-15 01:56:00,56.8,29.5,30.23,NNE,33,12.0,19.0,35,0.00,,,0.00,meteohub,2013-02-15 09:56:00,
2013-02-15 02:01:00,57.0,28.9,30.23,ENE,67,5.0,19.0,34,0.00,,,0.00,meteohub,2013-02-15 10:01:00,
2013-02-15 02:06:00,57.0,28.9,30.23,NE,34,10.0,18.0,34,0.00,,,0.00,meteohub,2013-02-15 10:06:00,
2013-02-15 02:11:00,57.0,29.7,30.22,NE,54,11.0,20.0,35,0.00,,,0.00,meteohub,2013-02-15 10:11:00,
2013-02-15 02:16:00,57.0,28.9,30.22,NE,42,14.0,24.0,34,0.00,,,0.00,meteohub,2013-02-15 10:16:00,
2013-02-15 02:21:00,57.0,28.9,30.23,NE,45,13.0,24.0,34,0.00,,,0.00,meteohub,2013-02-15 10:21:00,
2013-02-15 02:26:00,56.8,29.5,30.22,NE,51,8.0,24.0,35,0.00,,,0.00,meteohub,2013-02-15 10:26:00,
2013-02-15 02:31:00,56.8,29.5,30.23,NE,47,11.0,19.0,35,0.00,,,0.00,meteohub,2013-02-15 10:31:00,
2013-02-15 02:36:00,56.7,29.3,30.22,NE,40,12.0,18.0,35,0.00,,,0.00,meteohub,2013-02-15 10:36:00,
2013-02-15 02:41:00,56.7,29.3,30.22,NE,45,16.0,18.0,35,0.00,,,0.00,meteohub,2013-02-15 10:41:00,
2013-02-15 02:46:00,56.7,29.3,30.22,NE,37,12.0,18.0,35,0.00,,,0.00,meteohub,2013-02-15 10:46:00,
2013-02-15 02:51:00,56.7,29.3,30.22,North,9,12.0,18.0,35,0.00,,,0.00,meteohub,2013-02-15 10:51:00,
2013-02-15 02:56:00,56.5,29.1,30.22,NE,34,11.0,18.0,35,0.00,,,0.00,meteohub,2013-02-15 10:56:00,
2013-02-15 03:01:00,56.1,28.8,30.22,NNE,18,10.0,19.0,35,0.00,,,0.00,meteohub,2013-02-15 11:01:00,
2013-02-15 03:06:00,56.1,28.8,30.22,NE,55,14.0,19.0,35,0.00,,,0.00,meteohub,2013-02-15 11:06:00,
2013-02-15 03:11:00,56.1,28.8,30.22,NE,42,15.0,19.0,35,0.00,,,0.00,meteohub,2013-02-15 11:11:00,
2013-02-15 03:16:00,56.1,28.8,30.22,NE,49,10.0,19.0,35,0.00,,,0.00,meteohub,2013-02-15 11:16:00,
2013-02-15 03:21:00,55.9,29.3,30.22,NNE,33,10.0,17.0,36,0.00,,,0.00,meteohub,2013-02-15 11:21:00,
2013-02-15 03:26:00,55.9,28.8,30.22,NE,38,10.0,20.0,35,0.00,,,0.00,meteohub,2013-02-15 11:26:00,
2013-02-15 03:31:00,55.9,28.8,30.22,NE,46,13.0,20.0,35,0.00,,,0.00,meteohub,2013-02-15 11:31:00,
2013-02-15 03:36:00,56.1,28.8,30.22,NE,46,15.0,20.0,35,0.00,,,0.00,meteohub,2013-02-15 11:36:00,
2013-02-15 03:41:00,56.1,28.8,30.22,ENE,57,19.0,20.0,35,0.00,,,0.00,meteohub,2013-02-15 11:41:00,
2013-02-15 03:46:00,56.1,28.8,30.22,NE,38,9.0,21.0,35,0.00,,,0.00,meteohub,2013-02-15 11:46:00,
2013-02-15 03:51:00,56.1,28.8,30.21,NE,48,13.0,21.0,35,0.00,,,0.00,meteohub,2013-02-15 11:51:00,
2013-02-15 03:56:00,56.1,28.8,30.22,NNE,32,17.0,21.0,35,0.00,,,0.00,meteohub,2013-02-15 11:56:00,
2013-02-15 04:01:00,56.1,28.8,30.21,NE,38,18.0,18.0,35,0.00,,,0.00,meteohub,2013-02-15 12:01:00,
2013-02-15 04:06:00,56.1,28.8,30.21,North,9,11.0,18.0,35,0.00,,,0.00,meteohub,2013-02-15 12:06:00,
2013-02-15 04:11:00,55.9,28.8,30.22,NNE,32,12.0,18.0,35,0.00,,,0.00,meteohub,2013-02-15 12:11:00,
2013-02-15 04:16:00,55.9,28.8,30.22,NE,34,10.0,19.0,35,0.00,,,0.00,meteohub,2013-02-15 12:16:00,
2013-02-15 04:21:00,55.8,28.6,30.22,ENE,59,9.0,19.0,35,0.00,,,0.00,meteohub,2013-02-15 12:21:00,
2013-02-15 04:26:00,55.6,28.4,30.22,NNE,33,15.0,19.0,35,0.00,,,0.00,meteohub,2013-02-15 12:26:00,
2013-02-15 04:31:00,55.6,28.4,30.22,ENE,59,8.0,18.0,35,0.00,,,0.00,meteohub,2013-02-15 12:31:00,
2013-02-15 04:36:00,55.6,28.4,30.22,ENE,59,11.0,18.0,35,0.00,,,0.00,meteohub,2013-02-15 12:36:00,
2013-02-15 04:41:00,55.8,28.6,30.22,NE,55,14.0,18.0,35,0.00,,,0.00,meteohub,2013-02-15 12:41:00,
2013-02-15 04:46:00,55.8,28.6,30.22,NE,34,15.0,18.0,35,0.00,,,0.00,meteohub,2013-02-15 12:46:00,
2013-02-15 04:51:00,55.8,28.6,30.22,NNE,20,11.0,18.0,35,0.00,,,0.00,meteohub,2013-02-15 12:51:00,
2013-02-15 04:56:00,55.8,28.6,30.22,NE,52,11.0,18.0,35,0.00,,,0.00,meteohub,2013-02-15 12:56:00,
2013-02-15 05:01:00,55.8,28.6,30.22,NE,37,16.0,18.0,35,0.00,,,0.00,meteohub,2013-02-15 13:01:00,
2013-02-15 05:06:00,55.8,28.6,30.22,NNE,33,10.0,21.0,35,0.00,,,0.00,meteohub,2013-02-15 13:06:00,
2013-02-15 05:11:00,55.8,28.6,30.22,North,10,10.0,21.0,35,0.00,,,0.00,meteohub,2013-02-15 13:11:00,
2013-02-15 05:16:00,55.8,28.6,30.22,ENE,59,10.0,21.0,35,0.00,,,0.00,meteohub,2013-02-15 13:16:00,
2013-02-15 05:21:00,55.6,28.4,30.22,NE,46,17.0,20.0,35,0.00,,,0.00,meteohub,2013-02-15 13:21:00,
2013-02-15 05:26:00,55.6,28.4,30.22,NE,52,14.0,20.0,35,0.00,,,0.00,meteohub,2013-02-15 13:26:00,
2013-02-15 05:31:00,55.6,28.4,30.22,NE,53,20.0,20.0,35,0.00,,,0.00,meteohub,2013-02-15 13:31:00,
2013-02-15 05:36:00,55.6,28.4,30.22,NE,49,12.0,21.0,35,0.00,,,0.00,meteohub,2013-02-15 13:36:00,
2013-02-15 05:41:00,55.6,28.4,30.22,NE,53,10.0,21.0,35,0.00,,,0.00,meteohub,2013-02-15 13:41:00,
2013-02-15 05:46:00,55.4,28.2,30.22,NE,45,9.0,21.0,35,0.00,,,0.00,meteohub,2013-02-15 13:46:00,
2013-02-15 05:51:00,55.6,28.4,30.22,NNE,32,11.0,21.0,35,0.00,,,0.00,meteohub,2013-02-15 13:51:00,
2013-02-15 05:56:00,55.4,28.2,30.22,NNE,18,11.0,21.0,35,0.00,,,0.00,meteohub,2013-02-15 13:56:00,
2013-02-15 06:01:00,55.4,28.2,30.23,NE,55,15.0,21.0,35,0.00,,,0.00,meteohub,2013-02-15 14:01:00,
2013-02-15 06:06:00,55.2,28.0,30.23,NE,46,18.0,19.0,35,0.00,,,0.00,meteohub,2013-02-15 14:06:00,
2013-02-15 06:11:00,55.4,28.2,30.23,NNE,32,14.0,21.0,35,0.00,,,0.00,meteohub,2013-02-15 14:11:00,
2013-02-15 06:16:00,55.2,28.0,30.23,NE,46,17.0,21.0,35,0.00,,,0.00,meteohub,2013-02-15 14:16:00,
2013-02-15 06:21:00,55.2,28.0,30.23,NE,53,8.0,22.0,35,0.00,,,0.00,meteohub,2013-02-15 14:21:00,
2013-02-15 06:26:00,55.0,28.6,30.23,North,5,11.0,22.0,36,0.00,,,0.00,meteohub,2013-02-15 14:26:00,
2013-02-15 06:31:00,54.9,28.4,30.23,NE,55,7.0,22.0,36,0.00,,,0.00,meteohub,2013-02-15 14:31:00,
2013-02-15 06:36:00,54.7,28.2,30.23,ENE,58,14.0,18.0,36,0.00,,,0.00,meteohub,2013-02-15 14:36:00,
2013-02-15 06:41:00,54.7,28.2,30.23,NNE,19,11.0,18.0,36,0.00,,,0.00,meteohub,2013-02-15 14:41:00,
2013-02-15 06:46:00,54.7,28.2,30.23,NE,41,8.0,16.0,36,0.00,,,0.00,meteohub,2013-02-15 14:46:00,
2013-02-15 06:51:00,54.7,28.2,30.23,NE,54,13.0,16.0,36,0.00,,,0.00,meteohub,2013-02-15 14:51:00,
2013-02-15 06:56:00,54.7,28.2,30.23,NE,51,13.0,17.0,36,0.00,,,0.00,meteohub,2013-02-15 14:56:00,
2013-02-15 07:01:00,54.7,28.2,30.23,NE,47,10.0,17.0,36,0.00,,,0.00,meteohub,2013-02-15 15:01:00,
2013-02-15 07:06:00,54.3,27.9,30.23,ENE,59,10.0,17.0,36,0.00,,,0.00,meteohub,2013-02-15 15:06:00,
2013-02-15 07:11:00,54.3,27.9,30.23,NE,42,12.0,17.0,36,0.00,,,0.00,meteohub,2013-02-15 15:11:00,
2013-02-15 07:16:00,54.5,28.0,30.24,NE,54,14.0,17.0,36,0.00,,,0.00,meteohub,2013-02-15 15:16:00,
2013-02-15 07:21:00,54.5,28.0,30.24,NE,36,13.0,17.0,36,0.00,,,0.00,meteohub,2013-02-15 15:21:00,
2013-02-15 07:26:00,54.5,28.0,30.24,NNE,26,12.0,16.0,36,0.00,,,0.00,meteohub,2013-02-15 15:26:00,
2013-02-15 07:31:00,54.7,28.2,30.24,NE,41,9.0,16.0,36,0.00,,,0.00,meteohub,2013-02-15 15:31:00,
2013-02-15 07:36:00,54.5,28.0,30.24,NE,55,10.0,16.0,36,0.00,,,0.00,meteohub,2013-02-15 15:36:00,
2013-02-15 07:41:00,54.5,28.0,30.24,NNE,27,12.0,16.0,36,0.00,,,0.00,meteohub,2013-02-15 15:41:00,
2013-02-15 07:46:00,54.7,28.2,30.25,NE,43,12.0,16.0,36,0.00,,,0.00,meteohub,2013-02-15 15:46:00,
2013-02-15 07:51:00,54.7,28.2,30.25,NNE,26,17.0,17.0,36,0.00,,,0.00,meteohub,2013-02-15 15:51:00,
2013-02-15 07:56:00,54.7,28.2,30.25,NE,49,12.0,17.0,36,0.00,,,0.00,meteohub,2013-02-15 15:56:00,
2013-02-15 08:01:00,54.7,28.2,30.25,NE,34,13.0,17.0,36,0.00,,,0.00,meteohub,2013-02-15 16:01:00,
2013-02-15 08:06:00,54.7,28.2,30.25,NE,55,14.0,17.0,36,0.00,,,0.00,meteohub,2013-02-15 16:06:00,
2013-02-15 08:11:00,54.9,29.1,30.25,NE,40,10.0,17.0,37,0.00,,,0.00,meteohub,2013-02-15 16:11:00,
2013-02-15 08:16:00,54.9,28.4,30.25,NE,47,10.0,17.0,36,0.00,,,0.00,meteohub,2013-02-15 16:16:00,
2013-02-15 08:21:00,55.0,28.6,30.25,NE,40,12.0,17.0,36,0.00,,,0.00,meteohub,2013-02-15 16:21:00,
2013-02-15 08:26:00,55.2,29.5,30.25,ENE,61,9.0,17.0,37,0.00,,,0.00,meteohub,2013-02-15 16:26:00,
2013-02-15 08:31:00,55.2,28.8,30.25,NE,51,10.0,17.0,36,0.00,,,0.00,meteohub,2013-02-15 16:31:00,
2013-02-15 08:36:00,55.4,28.9,30.25,NE,34,11.0,17.0,36,0.00,,,0.00,meteohub,2013-02-15 16:36:00,
2013-02-15 08:41:00,55.6,29.1,30.26,NE,47,8.0,17.0,36,0.00,,,0.00,meteohub,2013-02-15 16:41:00,
2013-02-15 08:46:00,55.8,29.8,30.26,NNE,13,10.0,19.0,37,0.00,,,0.00,meteohub,2013-02-15 16:46:00,
2013-02-15 08:51:00,55.9,30.0,30.26,NE,38,7.0,19.0,37,0.00,,,0.00,meteohub,2013-02-15 16:51:00,
2013-02-15 08:56:00,55.9,30.0,30.26,NNE,13,5.0,19.0,37,0.00,,,0.00,meteohub,2013-02-15 16:56:00,
2013-02-15 09:01:00,56.1,28.8,30.26,ENE,57,11.0,16.0,35,0.00,,,0.00,meteohub,2013-02-15 17:01:00,
2013-02-15 09:06:00,56.5,29.8,30.26,ENE,61,7.0,16.0,36,0.00,,,0.00,meteohub,2013-02-15 17:06:00,
2013-02-15 09:11:00,56.3,30.4,30.26,NNE,15,11.0,16.0,37,0.00,,,0.00,meteohub,2013-02-15 17:11:00,
2013-02-15 09:16:00,56.5,30.6,30.26,NE,34,7.0,16.0,37,0.00,,,0.00,meteohub,2013-02-15 17:16:00,
2013-02-15 09:21:00,56.7,30.0,30.26,NE,47,8.0,16.0,36,0.00,,,0.00,meteohub,2013-02-15 17:21:00,
2013-02-15 09:26:00,56.8,30.2,30.26,NNE,22,11.0,16.0,36,0.00,,,0.00,meteohub,2013-02-15 17:26:00,
2013-02-15 09:31:00,56.8,30.2,30.27,North,0,6.0,16.0,36,0.00,,,0.00,meteohub,2013-02-15 17:31:00,
2013-02-15 09:36:00,57.2,30.6,30.27,ENE,78,12.0,16.0,36,0.00,,,0.00,meteohub,2013-02-15 17:36:00,
2013-02-15 09:41:00,57.4,30.0,30.27,NE,45,9.0,16.0,35,0.00,,,0.00,meteohub,2013-02-15 17:41:00,
2013-02-15 09:46:00,57.7,30.2,30.27,NE,47,11.0,16.0,35,0.00,,,0.00,meteohub,2013-02-15 17:46:00,
2013-02-15 09:51:00,57.7,30.9,30.27,NE,55,8.0,16.0,36,0.00,,,0.00,meteohub,2013-02-15 17:51:00,
2013-02-15 09:56:00,57.9,30.4,30.27,NE,34,10.0,16.0,35,0.00,,,0.00,meteohub,2013-02-15 17:56:00,
2013-02-15 10:01:00,58.5,31.6,30.27,NE,55,8.0,16.0,36,0.00,,,0.00,meteohub,2013-02-15 18:01:00,
2013-02-15 10:06:00,58.6,31.1,30.27,North,5,8.0,16.0,35,0.00,,,0.00,meteohub,2013-02-15 18:06:00,
2013-02-15 10:11:00,58.8,30.6,30.27,NNE,24,11.0,16.0,34,0.00,,,0.00,meteohub,2013-02-15 18:11:00,
2013-02-15 10:16:00,59.2,32.2,30.27,NNE,18,6.0,16.0,36,0.00,,,0.00,meteohub,2013-02-15 18:16:00,
2013-02-15 10:21:00,59.7,30.6,30.27,NNE,15,6.0,16.0,33,0.00,,,0.00,meteohub,2013-02-15 18:21:00,
2013-02-15 10:26:00,60.1,33.1,30.27,NNE,33,7.0,13.0,36,0.00,,,0.00,meteohub,2013-02-15 18:26:00,
2013-02-15 10:31:00,59.9,30.0,30.28,NE,56,7.0,16.0,32,0.00,,,0.00,meteohub,2013-02-15 18:31:00,
2013-02-15 10:36:00,59.5,30.4,30.27,NNE,31,8.0,16.0,33,0.00,,,0.00,meteohub,2013-02-15 18:36:00,
2013-02-15 10:41:00,59.9,31.5,30.27,NNE,33,6.0,16.0,34,0.00,,,0.00,meteohub,2013-02-15 18:41:00,
2013-02-15 10:46:00,60.4,32.0,30.28,NE,38,13.0,14.0,34,0.00,,,0.00,meteohub,2013-02-15 18:46:00,
2013-02-15 10:51:00,60.8,31.5,30.28,NNE,17,6.0,15.0,33,0.00,,,0.00,meteohub,2013-02-15 18:51:00,
2013-02-15 10:56:00,61.0,32.4,30.28,NNE,18,6.0,16.0,34,0.00,,,0.00,meteohub,2013-02-15 18:56:00,
2013-02-15 11:01:00,61.2,31.8,30.28,NE,46,6.0,16.0,33,0.00,,,0.00,meteohub,2013-02-15 19:01:00,
2013-02-15 11:06:00,61.3,33.4,30.28,NE,52,6.0,16.0,35,0.00,,,0.00,meteohub,2013-02-15 19:06:00,
2013-02-15 11:11:00,61.9,33.3,30.28,NE,55,10.0,13.0,34,0.00,,,0.00,meteohub,2013-02-15 19:11:00,
2013-02-15 11:16:00,62.1,33.4,30.28,North,350,8.0,13.0,34,0.00,,,0.00,meteohub,2013-02-15 19:16:00,
2013-02-15 11:21:00,62.1,33.4,30.28,North,5,6.0,12.0,34,0.00,,,0.00,meteohub,2013-02-15 19:21:00,
2013-02-15 11:26:00,62.1,32.5,30.28,ENE,61,11.0,13.0,33,0.00,,,0.00,meteohub,2013-02-15 19:26:00,
2013-02-15 11:31:00,62.1,32.5,30.28,North,355,8.0,13.0,33,0.00,,,0.00,meteohub,2013-02-15 19:31:00,
2013-02-15 11:36:00,62.6,33.8,30.28,NE,39,6.0,13.0,34,0.00,,,0.00,meteohub,2013-02-15 19:36:00,
2013-02-15 11:41:00,62.2,33.4,30.27,NE,35,8.0,12.0,34,0.00,,,0.00,meteohub,2013-02-15 19:41:00,
2013-02-15 11:46:00,62.4,32.9,30.27,NE,55,6.0,11.0,33,0.00,,,0.00,meteohub,2013-02-15 19:46:00,
2013-02-15 11:51:00,63.1,34.3,30.27,ENE,58,5.0,11.0,34,0.00,,,0.00,meteohub,2013-02-15 19:51:00,
2013-02-15 11:56:00,63.1,32.7,30.27,ENE,61,7.0,11.0,32,0.00,,,0.00,meteohub,2013-02-15 19:56:00,
2013-02-15 12:01:00,62.6,34.5,30.27,NNE,13,7.0,11.0,35,0.00,,,0.00,meteohub,2013-02-15 20:01:00,
2013-02-15 12:06:00,63.5,35.4,30.27,NE,47,9.0,10.0,35,0.00,,,0.00,meteohub,2013-02-15 20:06:00,
2013-02-15 12:11:00,63.7,34.0,30.27,NE,48,5.0,9.0,33,0.00,,,0.00,meteohub,2013-02-15 20:11:00,
2013-02-15 12:16:00,63.9,34.9,30.27,ENE,69,5.0,9.0,34,0.00,,,0.00,meteohub,2013-02-15 20:16:00,
2013-02-15 12:21:00,64.2,34.5,30.27,NNE,33,3.0,9.0,33,0.00,,,0.00,meteohub,2013-02-15 20:21:00,
2013-02-15 12:26:00,63.7,34.7,30.27,ENE,67,8.0,8.0,34,0.00,,,0.00,meteohub,2013-02-15 20:26:00,
2013-02-15 12:31:00,63.9,34.9,30.27,NE,47,2.0,8.0,34,0.00,,,0.00,meteohub,2013-02-15 20:31:00,
2013-02-15 12:36:00,64.4,35.4,30.26,ENE,67,3.0,8.0,34,0.00,,,0.00,meteohub,2013-02-15 20:36:00,
2013-02-15 12:41:00,64.2,35.2,30.26,NE,34,0.0,8.0,34,0.00,,,0.00,meteohub,2013-02-15 20:41:00,
2013-02-15 12:46:00,64.4,34.7,30.26,NE,52,2.0,10.0,33,0.00,,,0.00,meteohub,2013-02-15 20:46:00,
2013-02-15 12:51:00,64.6,35.6,30.26,NE,45,4.0,10.0,34,0.00,,,0.00,meteohub,2013-02-15 20:51:00,
2013-02-15 12:56:00,65.5,35.6,30.26,NNE,30,6.0,10.0,33,0.00,,,0.00,meteohub,2013-02-15 20:56:00,
2013-02-15 13:01:00,64.9,34.3,30.25,NNE,30,4.0,7.0,32,0.00,,,0.00,meteohub,2013-02-15 21:01:00,
2013-02-15 13:06:00,65.3,35.4,30.25,NE,40,3.0,7.0,33,0.00,,,0.00,meteohub,2013-02-15 21:06:00,
2013-02-15 13:11:00,65.8,34.3,30.25,North,355,4.0,7.0,31,0.00,,,0.00,meteohub,2013-02-15 21:11:00,
2013-02-15 13:16:00,65.8,37.4,30.25,NE,40,2.0,6.0,35,0.00,,,0.00,meteohub,2013-02-15 21:16:00,
2013-02-15 13:21:00,65.8,33.6,30.25,NNE,22,0.0,6.0,30,0.00,,,0.00,meteohub,2013-02-15 21:21:00,
2013-02-15 13:26:00,66.4,35.6,30.24,NE,46,4.0,6.0,32,0.00,,,0.00,meteohub,2013-02-15 21:26:00,
2013-02-15 13:31:00,66.7,36.0,30.24,NNE,16,2.0,7.0,32,0.00,,,0.00,meteohub,2013-02-15 21:31:00,
2013-02-15 13:36:00,66.7,36.0,30.24,North,10,7.0,7.0,32,0.00,,,0.00,meteohub,2013-02-15 21:36:00,
2013-02-15 13:41:00,66.6,35.8,30.24,NNE,28,5.0,8.0,32,0.00,,,0.00,meteohub,2013-02-15 21:41:00,
2013-02-15 13:46:00,66.6,33.3,30.24,NNE,14,3.0,10.0,29,0.00,,,0.00,meteohub,2013-02-15 21:46:00,
2013-02-15 13:51:00,66.4,34.9,30.24,NE,40,5.0,10.0,31,0.00,,,0.00,meteohub,2013-02-15 21:51:00,
2013-02-15 13:56:00,65.8,33.6,30.24,ENE,58,1.0,10.0,30,0.00,,,0.00,meteohub,2013-02-15 21:56:00,
2013-02-15 14:01:00,66.2,33.8,30.23,ENE,63,2.0,8.0,30,0.00,,,0.00,meteohub,2013-02-15 22:01:00,
2013-02-15 14:06:00,66.0,33.6,30.23,NNE,28,4.0,8.0,30,0.00,,,0.00,meteohub,2013-02-15 22:06:00,
2013-02-15 14:11:00,65.8,32.7,30.23,NNE,28,4.0,8.0,29,0.00,,,0.00,meteohub,2013-02-15 22:11:00,
2013-02-15 14:16:00,66.4,34.9,30.23,NNE,22,4.0,7.0,31,0.00,,,0.00,meteohub,2013-02-15 22:16:00,
2013-02-15 14:21:00,66.6,36.5,30.23,NNE,30,1.0,7.0,33,0.00,,,0.00,meteohub,2013-02-15 22:21:00,
2013-02-15 14:26:00,66.6,34.2,30.23,North,9,2.0,7.0,30,0.00,,,0.00,meteohub,2013-02-15 22:26:00,
2013-02-15 14:31:00,66.9,34.5,30.23,ENE,59,4.0,7.0,30,0.00,,,0.00,meteohub,2013-02-15 22:31:00,
2013-02-15 14:36:00,66.7,34.3,30.23,NE,39,6.0,7.0,30,0.00,,,0.00,meteohub,2013-02-15 22:36:00,
2013-02-15 14:41:00,67.5,32.4,30.23,North,5,3.0,7.0,27,0.00,,,0.00,meteohub,2013-02-15 22:41:00,
2013-02-15 14:46:00,67.1,32.9,30.23,NE,41,6.0,6.0,28,0.00,,,0.00,meteohub,2013-02-15 22:46:00,
2013-02-15 14:52:00,67.3,33.1,30.23,North,355,5.0,7.0,28,0.00,,,0.00,meteohub,2013-02-15 22:52:00,
2013-02-15 14:57:00,66.7,34.3,30.23,NE,40,2.0,7.0,30,0.00,,,0.00,meteohub,2013-02-15 22:57:00,
2013-02-15 15:02:00,67.3,33.1,30.23,NE,46,4.0,7.0,28,0.00,,,0.00,meteohub,2013-02-15 23:02:00,
2013-02-15 15:07:00,66.7,33.4,30.23,NE,47,2.0,7.0,29,0.00,,,0.00,meteohub,2013-02-15 23:07:00,
2013-02-15 15:12:00,66.4,32.4,30.23,NE,49,0.0,6.0,28,0.00,,,0.00,meteohub,2013-02-15 23:12:00,
2013-02-15 15:17:00,66.7,34.3,30.23,NE,49,0.0,6.0,30,0.00,,,0.00,meteohub,2013-02-15 23:17:00,
2013-02-15 15:22:00,67.3,34.0,30.24,NE,49,1.0,3.0,29,0.00,,,0.00,meteohub,2013-02-15 23:22:00,
2013-02-15 15:27:00,67.5,35.8,30.24,North,0,0.0,3.0,31,0.00,,,0.00,meteohub,2013-02-15 23:27:00,
2013-02-15 15:32:00,66.9,36.9,30.24,SW,227,3.0,4.0,33,0.00,,,0.00,meteohub,2013-02-15 23:32:00,
2013-02-15 15:37:00,67.3,37.2,30.24,SW,227,2.0,4.0,33,0.00,,,0.00,meteohub,2013-02-15 23:37:00,
2013-02-15 15:42:00,66.9,37.6,30.24,SW,228,2.0,4.0,34,0.00,,,0.00,meteohub,2013-02-15 23:42:00,
2013-02-15 15:47:00,67.1,38.5,30.23,South,187,6.0,6.0,35,0.00,,,0.00,meteohub,2013-02-15 23:47:00,
2013-02-15 15:52:00,66.7,39.0,30.23,South,176,2.0,6.0,36,0.00,,,0.00,meteohub,2013-02-15 23:52:00,
2013-02-15 15:56:00,66.7,39.0,30.23,SSW,201,1.0,6.0,36,0.00,,,0.00,meteohub,2013-02-15 23:56:00,
2013-02-15 16:02:00,66.4,39.4,30.23,SSW,201,1.0,6.0,37,0.00,,,0.00,meteohub,2013-02-16 00:02:00,
2013-02-15 16:07:00,66.4,39.4,30.23,SSW,200,2.0,5.0,37,0.00,,,0.00,meteohub,2013-02-16 00:07:00,
2013-02-15 16:12:00,66.4,39.4,30.23,NNE,26,0.0,5.0,37,0.00,,,0.00,meteohub,2013-02-16 00:12:00,
2013-02-15 16:17:00,66.2,38.5,30.23,NNE,26,3.0,5.0,36,0.00,,,0.00,meteohub,2013-02-16 00:17:00,
2013-02-15 16:22:00,66.2,37.8,30.23,East,87,1.0,5.0,35,0.00,,,0.00,meteohub,2013-02-16 00:22:00,
2013-02-15 16:27:00,65.7,40.1,30.23,East,87,0.0,4.0,39,0.00,,,0.00,meteohub,2013-02-16 00:27:00,
2013-02-15 16:32:00,65.5,39.2,30.23,West,267,4.0,4.0,38,0.00,,,0.00,meteohub,2013-02-16 00:32:00,
2013-02-15 16:37:00,65.5,40.5,30.23,SSW,210,4.0,6.0,40,0.00,,,0.00,meteohub,2013-02-16 00:37:00,
2013-02-15 16:42:00,65.5,40.5,30.23,SSW,211,3.0,6.0,40,0.00,,,0.00,meteohub,2013-02-16 00:42:00,
2013-02-15 16:47:00,65.1,39.6,30.23,SSW,210,2.0,6.0,39,0.00,,,0.00,meteohub,2013-02-16 00:47:00,
2013-02-15 16:52:00,64.9,39.4,30.23,SSW,212,2.0,6.0,39,0.00,,,0.00,meteohub,2013-02-16 00:52:00,
2013-02-15 16:57:00,64.8,39.2,30.23,SSW,212,3.0,5.0,39,0.00,,,0.00,meteohub,2013-02-16 00:57:00,
2013-02-15 17:02:00,64.6,40.3,30.23,SSW,212,2.0,4.0,41,0.00,,,0.00,meteohub,2013-02-16 01:02:00,
2013-02-15 17:07:00,64.2,39.4,30.23,SSW,212,2.0,4.0,40,0.00,,,0.00,meteohub,2013-02-16 01:07:00,
2013-02-15 17:12:00,64.0,39.9,30.23,SSW,212,1.0,4.0,41,0.00,,,0.00,meteohub,2013-02-16 01:12:00,
2013-02-15 17:17:00,63.7,40.8,30.23,SSW,212,2.0,4.0,43,0.00,,,0.00,meteohub,2013-02-16 01:17:00,
2013-02-15 17:22:00,63.1,40.8,30.23,SSW,212,1.0,4.0,44,0.00,,,0.00,meteohub,2013-02-16 01:22:00,
2013-02-15 17:27:00,62.8,40.5,30.23,SSW,212,0.0,4.0,44,0.00,,,0.00,meteohub,2013-02-16 01:27:00,
2013-02-15 17:32:00,61.3,42.6,30.23,SSW,212,0.0,3.0,50,0.00,,,0.00,meteohub,2013-02-16 01:32:00,
2013-02-15 17:37:00,59.2,42.6,30.23,SSW,212,0.0,2.0,54,0.00,,,0.00,meteohub,2013-02-16 01:37:00,
2013-02-15 17:42:00,57.9,42.3,30.23,SSW,212,0.0,1.0,56,0.00,,,0.00,meteohub,2013-02-16 01:42:00,
2013-02-15 17:47:00,56.7,42.1,30.23,SSW,212,0.0,0.0,58,0.00,,,0.00,meteohub,2013-02-16 01:47:00,
2013-02-15 17:52:00,56.7,42.4,30.23,SSW,212,0.0,0.0,59,0.00,,,0.00,meteohub,2013-02-16 01:52:00,
2013-02-15 17:57:00,56.8,42.6,30.23,SSW,212,0.0,0.0,59,0.00,,,0.00,meteohub,2013-02-16 01:57:00,
2013-02-15 18:02:00,55.8,41.7,30.23,SSW,212,0.0,0.0,59,0.00,,,0.00,meteohub,2013-02-16 02:02:00,
2013-02-15 18:07:00,54.3,42.1,30.24,SSW,212,0.0,0.0,63,0.00,,,0.00,meteohub,2013-02-16 02:07:00,
2013-02-15 18:12:00,53.6,42.4,30.24,SSW,212,0.0,0.0,66,0.00,,,0.00,meteohub,2013-02-16 02:12:00,
2013-02-15 18:17:00,53.4,42.8,30.24,SSW,212,0.0,0.0,67,0.00,,,0.00,meteohub,2013-02-16 02:17:00,
2013-02-15 18:22:00,54.0,42.8,30.23,SSW,212,0.0,0.0,66,0.00,,,0.00,meteohub,2013-02-16 02:22:00,
2013-02-15 18:27:00,53.1,42.8,30.24,SSW,212,0.0,0.0,68,0.00,,,0.00,meteohub,2013-02-16 02:27:00,
2013-02-15 18:32:00,51.6,41.7,30.24,SSW,212,0.0,1.0,69,0.00,,,0.00,meteohub,2013-02-16 02:32:00,
2013-02-15 18:37:00,51.3,42.6,30.24,SSW,212,0.0,1.0,72,0.00,,,0.00,meteohub,2013-02-16 02:37:00,
2013-02-15 18:42:00,50.9,42.3,30.24,SSW,212,0.0,1.0,72,0.00,,,0.00,meteohub,2013-02-16 02:42:00,
2013-02-15 18:47:00,50.4,41.7,30.24,SSW,212,0.0,0.0,72,0.00,,,0.00,meteohub,2013-02-16 02:47:00,
2013-02-15 18:52:00,49.8,41.5,30.24,SSW,212,0.0,1.0,73,0.00,,,0.00,meteohub,2013-02-16 02:52:00,
2013-02-15 18:57:00,49.5,41.5,30.24,SSW,212,0.0,1.0,74,0.00,,,0.00,meteohub,2013-02-16 02:57:00,
2013-02-15 19:02:00,49.5,41.5,30.24,SSW,212,0.0,1.0,74,0.00,,,0.00,meteohub,2013-02-16 03:02:00,
2013-02-15 19:07:00,49.8,41.9,30.24,SSW,212,0.0,0.0,74,0.00,,,0.00,meteohub,2013-02-16 03:07:00,
2013-02-15 19:12:00,49.1,41.2,30.24,SSW,212,0.0,0.0,74,0.00,,,0.00,meteohub,2013-02-16 03:12:00,
2013-02-15 19:17:00,48.4,40.8,30.25,SSW,212,0.0,0.0,75,0.00,,,0.00,meteohub,2013-02-16 03:17:00,
2013-02-15 19:22:00,48.0,40.8,30.25,SSW,212,0.0,0.0,76,0.00,,,0.00,meteohub,2013-02-16 03:22:00,
2013-02-15 19:27:00,48.2,41.0,30.24,SSW,212,0.0,0.0,76,0.00,,,0.00,meteohub,2013-02-16 03:27:00,
2013-02-15 19:32:00,47.8,41.0,30.24,SSW,212,1.0,1.0,77,0.00,,,0.00,meteohub,2013-02-16 03:32:00,
2013-02-15 19:37:00,47.8,40.6,30.24,SSW,212,0.0,2.0,76,0.00,,,0.00,meteohub,2013-02-16 03:37:00,
2013-02-15 19:42:00,47.8,40.6,30.24,SSW,212,0.0,2.0,76,0.00,,,0.00,meteohub,2013-02-16 03:42:00,
2013-02-15 19:47:00,47.7,40.5,30.24,SSW,212,0.0,2.0,76,0.00,,,0.00,meteohub,2013-02-16 03:47:00,
2013-02-15 19:52:00,47.5,40.6,30.24,SSW,212,0.0,2.0,77,0.00,,,0.00,meteohub,2013-02-16 03:52:00,
2013-02-15 19:57:00,47.1,40.3,30.25,SSW,212,0.0,2.0,77,0.00,,,0.00,meteohub,2013-02-16 03:57:00,
2013-02-15 20:02:00,47.1,40.3,30.25,SSW,212,0.0,2.0,77,0.00,,,0.00,meteohub,2013-02-16 04:02:00,
2013-02-15 20:07:00,46.6,40.1,30.25,SSW,212,0.0,1.0,78,0.00,,,0.00,meteohub,2013-02-16 04:07:00,
2013-02-15 20:12:00,46.2,40.1,30.25,SSW,212,0.0,0.0,79,0.00,,,0.00,meteohub,2013-02-16 04:12:00,
2013-02-15 20:17:00,45.9,39.7,30.25,SSW,212,0.0,0.0,79,0.00,,,0.00,meteohub,2013-02-16 04:17:00,
2013-02-15 20:22:00,45.9,39.7,30.25,SSW,212,0.0,0.0,79,0.00,,,0.00,meteohub,2013-02-16 04:22:00,
2013-02-15 20:27:00,45.7,39.6,30.25,SSW,212,0.0,0.0,79,0.00,,,0.00,meteohub,2013-02-16 04:27:00,
2013-02-15 20:32:00,46.2,40.1,30.25,SSW,212,0.0,0.0,79,0.00,,,0.00,meteohub,2013-02-16 04:32:00,
2013-02-15 20:37:00,46.0,39.6,30.25,SSW,212,0.0,0.0,78,0.00,,,0.00,meteohub,2013-02-16 04:37:00,
2013-02-15 20:42:00,45.5,39.7,30.25,SSW,212,0.0,1.0,80,0.00,,,0.00,meteohub,2013-02-16 04:42:00,
2013-02-15 20:47:00,45.3,39.6,30.26,SSW,212,1.0,1.0,80,0.00,,,0.00,meteohub,2013-02-16 04:47:00,
2013-02-15 20:52:00,45.3,39.2,30.25,SSW,212,0.0,2.0,79,0.00,,,0.00,meteohub,2013-02-16 04:52:00,
2013-02-15 20:57:00,45.0,39.2,30.25,SSW,212,0.0,2.0,80,0.00,,,0.00,meteohub,2013-02-16 04:57:00,
2013-02-15 21:00:00,44.8,39.4,30.26,SSW,212,0.0,2.0,81,0.00,,,0.00,meteohub,2013-02-16 05:00:00,
2013-02-15 21:05:00,44.4,39.0,30.26,SSW,212,0.0,2.0,81,0.00,,,0.00,meteohub,2013-02-16 05:05:00,
2013-02-15 21:10:00,44.4,39.0,30.26,SSW,212,1.0,2.0,81,0.00,,,0.00,meteohub,2013-02-16 05:10:00,
2013-02-15 21:15:00,44.6,39.2,30.26,SSW,212,0.0,2.0,81,0.00,,,0.00,meteohub,2013-02-16 05:15:00,
2013-02-15 21:20:00,44.8,39.4,30.26,SSW,212,0.0,2.0,81,0.00,,,0.00,meteohub,2013-02-16 05:20:00,
2013-02-15 21:23:00,44.6,38.8,30.26,SSW,212,0.0,2.0,80,0.00,,,0.00,meteohub,2013-02-16 05:23:00,
2013-02-15 21:28:00,44.4,38.7,30.26,SSW,212,1.0,2.0,80,0.00,,,0.00,meteohub,2013-02-16 05:28:00,
2013-02-15 21:33:00,44.4,38.7,30.26,SSW,212,0.0,2.0,80,0.00,,,0.00,meteohub,2013-02-16 05:33:00,
2013-02-15 21:38:00,44.2,38.8,30.26,SSW,212,0.0,2.0,81,0.00,,,0.00,meteohub,2013-02-16 05:38:00,
2013-02-15 21:43:00,44.2,38.8,30.26,SSW,212,0.0,2.0,81,0.00,,,0.00,meteohub,2013-02-16 05:43:00,
2013-02-15 21:48:00,43.9,38.5,30.26,SSW,212,0.0,1.0,81,0.00,,,0.00,meteohub,2013-02-16 05:48:00,
2013-02-15 21:53:00,43.7,38.5,30.26,SSW,212,0.0,0.0,82,0.00,,,0.00,meteohub,2013-02-16 05:53:00,
2013-02-15 21:58:00,43.9,38.7,30.26,SSW,212,0.0,0.0,82,0.00,,,0.00,meteohub,2013-02-16 05:58:00,
2013-02-15 22:03:00,44.4,39.0,30.26,SSW,212,1.0,0.0,81,0.00,,,0.00,meteohub,2013-02-16 06:03:00,
2013-02-15 22:08:00,44.4,38.7,30.27,SSW,212,1.0,2.0,80,0.00,,,0.00,meteohub,2013-02-16 06:08:00,
2013-02-15 22:13:00,44.4,38.7,30.26,SSW,212,1.0,2.0,80,0.00,,,0.00,meteohub,2013-02-16 06:13:00,
2013-02-15 22:18:00,44.1,38.3,30.27,SSW,212,0.0,2.0,80,0.00,,,0.00,meteohub,2013-02-16 06:18:00,
2013-02-15 22:23:00,43.9,38.5,30.26,SSW,212,0.0,2.0,81,0.00,,,0.00,meteohub,2013-02-16 06:23:00,
2013-02-15 22:28:00,43.3,38.3,30.26,SSW,212,0.0,1.0,82,0.00,,,0.00,meteohub,2013-02-16 06:28:00,
2013-02-15 22:33:00,43.5,38.5,30.27,SSW,212,0.0,1.0,82,0.00,,,0.00,meteohub,2013-02-16 06:33:00,
2013-02-15 22:38:00,43.3,38.3,30.27,SSW,212,0.0,1.0,82,0.00,,,0.00,meteohub,2013-02-16 06:38:00,
2013-02-15 22:43:00,43.2,38.1,30.27,SSW,212,0.0,0.0,82,0.00,,,0.00,meteohub,2013-02-16 06:43:00,
2013-02-15 22:48:00,43.2,38.3,30.27,SSW,212,0.0,0.0,83,0.00,,,0.00,meteohub,2013-02-16 06:48:00,
2013-02-15 22:53:00,43.3,38.5,30.27,SSW,212,1.0,1.0,83,0.00,,,0.00,meteohub,2013-02-16 06:53:00,
2013-02-15 22:58:00,43.3,38.3,30.27,SSW,212,0.0,2.0,82,0.00,,,0.00,meteohub,2013-02-16 06:58:00,
2013-02-15 23:03:00,43.2,38.1,30.27,SSW,212,1.0,2.0,82,0.00,,,0.00,meteohub,2013-02-16 07:03:00,
2013-02-15 23:08:00,43.2,38.1,30.27,SSW,212,2.0,2.0,82,0.00,,,0.00,meteohub,2013-02-16 07:08:00,
2013-02-15 23:13:00,43.2,38.3,30.27,SSW,212,2.0,3.0,83,0.00,,,0.00,meteohub,2013-02-16 07:13:00,
2013-02-15 23:18:00,43.3,38.3,30.27,SSW,212,1.0,3.0,82,0.00,,,0.00,meteohub,2013-02-16 07:18:00,
2013-02-15 23:23:00,43.0,37.9,30.27,SSW,212,2.0,3.0,82,0.00,,,0.00,meteohub,2013-02-16 07:23:00,
2013-02-15 23:28:00,43.2,38.1,30.27,SSW,212,1.0,3.0,82,0.00,,,0.00,meteohub,2013-02-16 07:28:00,
2013-02-15 23:33:00,42.4,37.4,30.27,SSW,212,0.0,3.0,82,0.00,,,0.00,meteohub,2013-02-16 07:33:00,
2013-02-15 23:38:00,42.3,37.4,30.27,SSW,212,0.0,3.0,83,0.00,,,0.00,meteohub,2013-02-16 07:38:00,
2013-02-15 23:43:00,42.4,37.6,30.27,SSW,212,0.0,3.0,83,0.00,,,0.00,meteohub,2013-02-16 07:43:00,
2013-02-15 23:48:00,42.3,37.8,30.27,SSW,212,0.0,1.0,84,0.00,,,0.00,meteohub,2013-02-16 07:48:00,
2013-02-15 23:53:00,42.3,37.4,30.27,SSW,212,1.0,1.0,83,0.00,,,0.00,meteohub,2013-02-16 07:53:00,
2013-02-15 23:58:00,42.3,37.8,30.26,SSW,212,2.0,2.0,84,0.00,,,0.00,meteohub,2013-02-16 07:58:00,